Temp_Advection
nan nan nan nan nan nan nan nan nan nan nan nan nan nan nan nan nan nan nan nan nan nan nan nan nan nan nan nan nan nan nan nan nan nan nan nan nan nan nan nan nan nan nan nan nan nan nan nan nan nan nan nan nan nan nan nan nan nan nan nan nan nan nan nan nan nan nan nan nan nan nan nan nan nan
nan -0 2 2 1 -1 -1 -1 -1 -0 0 1 0 -1 -1 -1 -0 -0 0 -0 -1 -1 -1 -1 -1 -0 0 1 0 -0 -0 0 0 -0 -1 -0 0 0 0 0 -0 -0 -0 0 0 0 1 0 0 0 -0 -0 -0 0 0 0 0 0 0 0 0 0 0 0 0 0 0 0 0 0 0 0 0 nan
nan -1 0 2 1 -0 -0 -1 -1 -1 -0 0 1 0 -0 -1 -0 -0 -0 -1 -1 -0 -1 -1 -0 0 1 0 -0 -0 -0 0 0 0 -0 0 0 -0 0 1 0 -0 -0 0 0 0 0 0 0 0 -0 -0 -0 0 0 0 0 0 0 0 0 0 0 0 0 0 0 0 0 0 0 0 0 nan
nan -2 -1 0 0 -0 -0 -0 -0 -1 -1 -0 0 0 0 -0 -0 -0 -0 -1 -1 -0 -0 -0 0 0 0 0 -0 -0 0 0 1 0 -0 0 0 0 1 1 0 -0 -0 0 0 0 0 0 0 0 -0 -1 -1 -0 0 0 0 0 0 0 0 0 0 0 0 0 0 0 0 0 0 0 0 nan
nan -0 -1 -1 -1 -1 -1 -0 -0 -0 -1 -1 -0 -0 -0 -0 -0 -0 -0 -0 -1 -0 0 -0 -0 0 0 -0 -1 -0 0 0 0 0 0 1 1 1 1 0 -0 -0 0 0 0 0 0 0 0 0 -0 -1 -0 -0 -0 -0 0 0 0 0 0 0 0 0 0 0 0 0 0 0 0 0 0 nan
nan 0 -0 -1 -1 -1 -1 -1 -0 -0 -0 -0 -0 -0 -0 -0 -0 -0 -0 0 -0 -1 -0 -0 -0 0 0 -0 -1 -0 -0 -0 0 0 0 1 1 0 0 0 -0 -0 0 0 1 0 0 1 1 0 -0 -0 0 -0 -0 -0 0 0 0 0 0 0 0 0 0 0 0 0 0 0 0 0 0 nan
nan -1 -0 -0 -1 -1 -1 -1 -1 -0 -0 -0 -0 -0 0 -0 -1 -0 -0 -0 0 -0 -1 -1 -0 0 0 -0 -1 -0 0 -0 -0 0 0 0 0 0 0 -0 -0 -0 0 0 0 0 0 1 0 0 0 0 0 -1 -0 0 0 0 0 0 0 0 0 0 0 0 0 0 0 0 0 0 0 nan
nan -2 -1 -1 -1 -1 -1 -1 -1 -1 -1 -0 -0 -0 -0 -0 -0 -0 -0 -1 -0 0 -1 -1 -0 0 0 -0 -0 0 0 -0 -0 0 0 0 0 0 0 -0 -0 0 0 0 0 -0 0 0 0 0 0 0 -0 -1 -0 0 -0 -0 0 0 0 0 0 0 0 0 0 0 0 0 0 0 0 nan
nan -2 -2 -2 -2 -2 -2 -2 -1 -1 -1 -1 -0 0 -0 -0 -0 0 0 -1 -1 -0 -1 -1 -0 0 0 0 0 0 0 -0 -0 0 0 0 0 0 0 -0 0 1 1 0 0 -0 0 0 1 1 0 0 -0 -1 -0 0 -0 -0 0 0 0 0 0 0 1 1 1 0 0 0 0 0 0 nan
nan -1 -1 -2 -2 -2 -2 -2 -2 -2 -2 -2 -1 -1 -0 -0 -0 -0 -0 -0 -0 -0 -1 -1 -0 0 0 0 -0 0 0 -0 -0 0 0 0 0 0 0 -0 0 0 0 0 0 0 0 1 1 1 0 -0 -1 -1 -0 0 -0 -0 0 0 0 0 0 1 1 1 1 0 0 0 0 0 0 nan
nan -0 -1 -1 -2 -2 -2 -2 -3 -3 -2 -2 -1 -1 -1 -1 -0 -0 -0 -0 -0 0 -0 -0 -1 -1 -0 0 0 0 0 0 -0 -0 0 0 0 -0 -0 -0 -0 -0 -0 0 0 0 0 1 2 1 0 0 -1 -1 -0 0 -0 0 0 0 0 1 0 0 0 0 0 0 0 0 0 0 0 nan
nan -0 -0 -0 -1 -1 -1 -1 -2 -3 -3 -3 -2 -1 -2 -2 -1 -0 -0 -0 -0 -0 -0 -0 -0 -1 -1 -0 0 0 0 -0 -0 -0 0 -0 -0 -0 -0 -0 -0 -0 -0 0 0 0 1 1 1 1 0 0 -1 -1 0 0 0 0 0 0 1 0 0 0 0 0 0 0 0 0 0 0 0 nan
nan 0 -0 -0 -1 -1 -1 -0 -0 -0 -1 -3 -3 -3 -2 -2 -2 -1 -0 -0 0 -0 -1 -0 -0 -0 -1 -0 0 1 -0 -1 -0 0 0 -0 -1 -0 0 0 0 -0 0 0 0 0 0 1 1 0 0 0 -1 -0 0 0 -0 0 0 0 0 0 0 0 0 0 0 0 0 0 0 0 0 nan
nan -1 -0 -0 -1 -1 -1 -1 -0 0 0 0 -1 -2 -2 -2 -2 -2 -1 -0 -0 -0 -1 -1 -0 -0 -0 -0 0 -0 -1 0 1 0 -0 -0 -0 1 1 1 0 -0 0 0 0 -0 -0 0 -0 -0 0 -0 -1 -1 -0 -0 -0 0 0 0 0 0 0 0 0 0 0 0 0 0 0 0 0 nan
nan -2 -1 -1 -1 -1 -1 -1 -1 -1 -0 0 0 -0 0 -0 -1 -2 -2 -2 -1 -0 -0 -1 -0 -0 -0 -0 0 -1 -0 1 1 -0 -0 0 0 1 1 0 -1 -1 -1 0 0 0 0 -0 -0 -0 0 -1 -2 -1 -1 -0 -0 0 0 0 0 0 0 0 0 0 1 1 0 0 0 0 0 nan
nan -2 -2 -2 -1 -1 -1 -2 -2 -2 -1 -1 -1 -1 -0 1 1 -0 -2 -2 -1 -1 -0 -0 -0 -1 -1 -0 0 0 0 0 0 -0 0 0 0 0 -0 -1 -2 -2 -1 1 1 1 0 0 0 0 -0 -2 -2 -1 -0 0 0 0 0 0 1 0 0 0 0 1 1 1 1 0 0 0 0 nan
nan -2 -2 -2 -2 -1 -1 -2 -3 -3 -3 -2 -2 -2 -1 -1 1 1 -0 -1 -1 -1 -0 -0 -1 -1 -0 -0 -0 0 0 -0 -0 -0 -0 -0 -0 -0 -1 -1 -2 -1 1 1 1 1 0 0 0 0 -0 -1 -1 -0 0 0 0 0 0 1 1 0 0 0 1 1 1 1 1 0 0 0 0 nan
nan -1 -1 -2 -2 -2 -2 -2 -3 -4 -4 -4 -3 -2 -2 -2 -1 -0 0 -0 -1 -1 -1 -0 -0 -0 -1 -1 -0 0 -0 -0 -0 -0 -0 -0 -1 -1 -0 0 0 0 1 2 2 1 -0 0 1 1 1 0 0 0 0 0 0 0 1 1 1 0 0 0 1 1 1 1 1 0 0 0 0 nan
nan -1 -1 -2 -2 -2 -2 -2 -3 -4 -4 -4 -4 -4 -3 -2 -2 -1 -1 -1 -1 -1 -1 -1 -0 -0 -0 -0 -0 -0 -0 -0 -0 -0 -0 -0 0 1 1 1 1 1 2 2 1 0 -0 0 1 2 1 0 0 0 0 0 0 0 1 1 0 0 1 1 1 1 1 1 0 0 0 0 1 nan
nan -1 -1 -1 -1 -1 -2 -2 -2 -3 -4 -4 -5 -5 -4 -3 -2 -1 -0 -1 -2 -1 -1 -1 -1 -1 -0 0 -0 -0 -0 -0 -0 0 0 1 1 1 1 1 0 0 1 1 1 0 0 0 1 2 1 -0 0 0 0 0 0 0 1 0 0 0 1 1 1 1 1 1 0 0 0 1 1 nan
nan -0 -0 -1 -1 -1 -1 -1 -1 -2 -2 -3 -4 -6 -6 -5 -3 -2 -0 -0 -1 -1 -1 -1 -1 -1 -1 -0 0 0 0 -0 -0 0 0 0 1 1 1 0 -0 0 1 1 1 1 -0 -0 1 1 -0 -0 0 0 0 1 1 1 1 1 0 1 1 1 1 1 1 0 0 0 1 1 1 nan
nan -0 -0 -0 -1 -1 -1 -0 0 -0 -1 -1 -2 -3 -6 -6 -6 -4 -3 -2 -1 -1 -1 -1 -0 -1 -1 -0 0 0 0 0 -0 -0 -0 0 0 0 0 -0 0 1 0 -0 1 0 -1 -0 1 0 0 1 1 0 1 1 1 1 1 1 1 1 1 1 1 1 1 0 0 1 1 1 1 nan
nan -1 -1 -0 -0 -1 -1 -0 -0 0 -0 -0 -0 -0 -2 -4 -6 -6 -5 -5 -3 -2 -1 -0 -0 -1 -1 -0 0 0 0 0 -0 -0 0 1 0 0 0 -0 1 0 -1 -1 1 -0 -1 0 1 1 1 1 -0 -0 0 0 0 0 0 0 0 0 1 1 1 1 1 1 1 1 1 1 1 nan
nan -2 -2 -1 -1 -1 -1 -1 -0 -0 -0 -0 -0 -0 -0 -1 -2 -3 -4 -5 -5 -4 -2 -1 -1 -1 -1 -0 0 0 0 0 0 -0 0 0 0 0 0 0 0 -1 -2 -1 1 -1 -1 0 1 1 1 -0 -1 -1 -0 0 0 0 0 0 0 0 1 1 1 1 1 1 1 1 1 1 1 nan
nan -2 -2 -1 -1 -1 -1 -0 -0 -1 -1 -1 -1 -1 -0 -0 -1 -1 -1 -2 -3 -4 -3 -1 -1 -1 -1 -0 0 0 0 0 0 -0 -0 0 -0 0 0 0 -0 -1 -2 -0 1 -0 -1 0 0 1 1 -0 -0 0 0 0 0 0 0 0 0 1 1 1 1 1 1 1 1 1 2 2 1 nan
nan -1 -1 -1 -1 -0 -0 -0 -0 -0 -1 -1 -1 -1 -1 -0 -0 -0 -0 -1 -1 -2 -2 -1 -1 -1 -2 -1 0 0 0 0 -0 -0 0 0 -0 -0 0 0 -0 -1 -1 0 1 0 -1 -0 -0 -0 -0 0 1 1 1 1 0 1 1 1 1 1 1 0 1 1 1 1 2 2 2 2 2 nan
nan -0 -0 -0 -0 -0 -0 0 -0 -0 -0 -0 -1 -1 -1 -1 -1 -1 -1 -1 -0 -1 -1 -1 -1 -1 -2 -1 -1 -0 -0 -0 -0 0 0 0 0 0 0 1 0 0 0 1 1 0 -0 0 0 -0 0 1 1 1 0 -0 0 1 1 1 1 2 1 1 1 1 1 2 3 3 2 2 1 nan
nan 0 0 0 0 -0 -0 -0 -0 -0 -0 -0 -0 -0 -1 -1 -1 -1 -1 -1 -1 -0 -1 -1 -1 -1 -1 -2 -1 -1 -1 -0 -0 0 0 0 0 0 0 1 1 1 1 1 0 0 1 1 1 1 1 1 -0 -0 -1 -1 0 1 1 1 2 2 2 2 2 2 3 4 3 2 1 1 0 nan
nan 0 1 1 0 0 -0 -0 -0 -1 -0 -0 0 -0 -0 -1 -1 -1 -1 -1 -1 -1 -1 -1 -1 -1 -1 -1 -1 -1 -1 -1 -1 -0 -0 0 1 1 1 1 1 1 1 1 0 0 1 1 1 1 1 -0 -0 -0 -0 -0 0 1 1 1 1 2 3 4 4 4 4 4 3 1 1 1 1 nan
nan 0 0 0 0 0 -0 -0 -0 -0 -0 0 -0 -0 -0 -1 -1 -1 -1 -1 -1 -1 -1 -1 -1 -1 -0 0 -0 -1 -1 -1 -1 -1 -1 -0 1 1 1 0 1 1 1 1 0 1 1 0 1 1 1 -0 1 1 0 -0 1 1 1 2 1 1 3 4 4 4 4 3 2 1 1 2 2 nan
nan -0 -0 -0 -0 -0 0 -0 -0 -0 -0 -1 -1 -1 -1 -0 -0 -0 -0 -0 -0 -0 -0 -0 -0 -0 1 1 0 -0 -1 -1 -1 -1 -1 -0 0 1 1 1 1 1 1 1 1 1 1 0 1 1 0 0 2 2 0 0 2 1 1 3 3 2 2 3 3 3 3 1 1 2 2 2 1 nan
nan -0 -0 -0 -0 -0 -0 -1 -1 -1 -1 -1 -1 -1 -1 -0 -0 -0 0 0 -0 -0 0 0 0 0 0 -0 -0 -1 -1 -1 -1 -1 -0 -0 0 1 1 1 1 1 1 1 1 1 0 0 1 1 0 1 2 2 1 2 2 3 3 4 5 5 4 3 2 2 2 2 1 1 1 1 1 nan
nan -1 -0 -1 -1 -1 -1 -1 -1 -1 -1 -0 -0 -0 -0 -0 -0 -0 -0 -0 -0 -0 -0 -0 -0 -0 -0 -1 -1 -1 -1 -1 -1 -0 -0 -0 -0 0 0 1 1 2 1 1 1 1 1 1 1 2 1 2 2 2 2 2 3 4 5 4 3 5 4 2 1 2 2 2 1 0 0 0 0 nan
nan -1 -1 -1 -1 -1 -1 -1 -1 -0 -0 -0 -0 -0 -0 -0 -1 -0 -0 -1 -0 -0 -0 -0 -0 -0 -0 -1 -1 -1 -1 -1 -0 -0 -0 -0 -0 -0 0 0 0 1 2 2 2 2 2 2 2 2 2 2 3 4 3 3 2 4 6 5 3 2 2 2 2 2 2 1 0 -0 -0 -0 0 nan
nan -0 -0 -0 -1 -1 -0 -0 -0 -0 -0 -0 -0 -0 -0 -1 -0 -0 -1 -0 -0 -0 -0 -0 -0 -0 -0 -0 -0 -0 -0 -0 -0 -0 -0 -0 0 0 0 -0 -0 0 1 1 2 3 3 2 2 1 2 3 3 4 5 4 3 1 1 3 4 2 1 1 2 0 0 1 1 0 -0 -0 0 nan
nan -0 -0 -0 -0 -0 -0 0 0 0 0 0 0 0 -0 -1 -0 -0 0 0 0 -0 -0 -0 -0 -0 -0 -0 -0 -0 -0 -0 -0 -0 -0 -0 -0 -0 -0 -0 -0 0 1 1 1 2 3 3 2 2 1 2 2 1 3 5 6 3 -2 -3 1 3 1 -0 0 0 -0 1 1 1 0 0 -0 nan
nan -0 -0 -0 0 -0 0 0 0 0 0 0 0 0 0 -0 0 0 1 1 0 -0 0 0 0 0 -0 -0 -0 -0 -0 -0 -0 -0 -0 -0 0 -0 -0 -0 -0 0 0 0 1 1 1 2 3 3 2 0 0 -0 0 2 5 6 1 -3 -4 -0 1 -0 -0 1 1 1 1 1 1 0 -0 nan
nan -0 -0 -0 0 -0 -0 -0 -0 -0 0 0 0 0 0 0 1 1 0 0 -0 0 0 0 0 0 -0 -0 -0 -0 -0 -0 -0 -0 -0 -0 -0 -0 -0 -0 0 0 0 0 0 1 1 1 1 2 2 0 -1 -1 0 -0 1 5 4 2 -2 -2 0 0 -0 -0 0 0 0 1 1 1 0 nan
nan -0 -0 -0 -0 -0 -0 -0 -0 -0 -0 -0 -0 -0 0 0 0 0 0 -0 0 0 0 0 0 0 -0 -0 -0 -0 -0 -0 -0 -0 -0 -0 -0 -0 0 0 0 0 0 0 0 0 1 1 1 1 1 0 -1 -1 -0 -1 -1 1 3 3 1 -1 -1 -0 -1 -1 -1 -0 -0 -0 0 1 0 nan
nan -0 -0 -0 -0 -0 -0 -0 -0 -0 -0 -0 -0 -0 -0 0 0 0 0 0 0 0 0 0 0 0 -0 -0 0 0 -0 -0 -0 -0 0 0 0 0 0 0 0 0 0 -0 -0 0 0 0 1 1 1 -0 -0 -0 -1 -1 -0 -0 1 2 2 1 1 0 -0 -1 -1 -0 -0 -1 -0 0 0 nan
nan -0 -0 -0 -0 -0 -0 -0 -0 -1 -0 -0 -0 -0 -0 -0 0 0 0 0 0 0 0 0 0 -0 -0 0 0 0 -0 -0 -0 0 0 0 0 0 0 0 0 0 -0 -1 -1 -0 0 1 1 1 0 -0 -0 0 -1 -1 -0 1 1 1 1 1 1 1 1 0 -1 -1 -1 -1 -1 -0 0 nan
nan -0 0 -0 -0 -0 -0 -0 -1 -0 -0 -0 -0 -0 -0 -0 0 0 -0 0 0 0 0 -0 0 0 0 0 0 0 -0 -0 -0 -0 0 -0 -0 -0 -0 -0 0 0 -0 -1 -1 -0 1 1 1 0 0 1 0 -0 -1 -1 -1 0 0 0 0 1 0 1 1 1 0 -0 -0 -1 -1 -1 -1 nan
nan 0 0 0 0 0 -0 -0 -0 -0 -0 -0 -0 -0 -0 -0 -0 -0 -0 -0 -0 -0 -0 -0 -0 0 0 0 0 0 -0 -0 -0 -0 -0 -0 -0 -0 -0 0 0 -0 -1 -1 -0 0 1 1 1 0 0 1 1 -0 -1 -1 -0 -0 -0 -0 -0 -0 0 0 1 1 1 1 1 0 -0 -0 -0 nan
nan 0 0 0 0 -0 -0 -0 -0 -0 -0 0 0 -0 -0 0 -0 -0 -0 -0 -0 -0 -0 -0 -0 0 0 0 0 -0 -0 -0 -0 -0 -0 -0 -0 -0 0 0 0 -0 -0 -1 -0 -0 0 0 0 0 0 1 1 0 -0 -0 -0 -0 -0 -0 -0 -0 -0 -0 0 0 0 0 0 0 0 0 0 nan
nan nan nan nan nan nan nan nan nan nan nan nan nan nan nan nan nan nan nan nan nan nan nan nan nan nan nan nan nan nan nan nan nan nan nan nan nan nan nan nan nan nan nan nan nan nan nan nan nan nan nan nan nan nan nan nan nan nan nan nan nan nan nan nan nan nan nan nan nan nan nan nan nan nan
Wind_Speed
25 25 25 24 23 23 24 24 26 28 28 30 30 27 26 29 30 29 28 29 32 33 31 28 28 29 30 32 33 34 34 34 34 35 34 34 34 35 36 36 34 33 31 29 30 30 29 29 30 31 31 27 23 21 23 23 22 22 24 26 27 26 25 23 23 22 21 21 20 20 20 20 21 20
26 27 26 25 24 24 24 23 24 26 27 28 27 25 25 27 30 32 31 31 33 32 31 30 28 28 29 30 31 31 31 32 33 35 35 35 35 34 36 37 35 34 32 30 30 30 31 31 31 32 32 30 26 22 22 24 24 23 25 28 28 27 26 25 24 23 22 21 21 21 21 22 22 21
26 27 27 25 24 24 25 24 23 25 27 27 25 24 25 26 29 31 31 34 35 33 32 31 28 29 30 29 29 29 29 29 32 34 34 35 34 33 36 37 35 34 33 30 30 30 31 32 32 32 33 32 29 23 21 24 25 24 27 29 29 28 26 26 25 24 23 22 22 22 23 23 22 20
26 27 27 26 24 24 26 25 24 24 26 27 25 23 24 25 27 29 30 33 35 34 32 30 28 28 29 28 29 30 28 27 29 32 33 34 33 33 36 37 36 35 33 31 30 30 32 33 33 34 33 32 31 26 22 25 26 25 27 30 30 29 28 27 26 25 24 23 23 24 24 23 21 20
25 26 27 26 24 23 25 26 25 25 26 26 26 25 25 25 27 28 29 32 35 35 34 32 29 27 26 26 29 31 30 27 27 31 34 34 34 34 35 37 37 36 33 32 31 31 32 33 34 34 33 32 31 28 25 25 27 26 28 31 32 30 29 28 27 26 24 24 25 25 24 22 21 19
24 24 25 24 24 23 25 26 26 26 26 24 24 25 25 26 27 27 28 30 33 36 36 33 30 26 25 26 27 29 30 28 27 30 34 35 35 35 35 37 37 36 33 31 32 32 32 33 34 34 33 32 32 30 26 26 28 28 29 32 33 31 30 29 28 26 25 25 26 26 24 22 21 19
23 23 23 23 24 25 25 27 28 27 26 24 22 22 23 25 26 28 29 29 32 36 36 32 27 25 26 27 26 25 26 27 27 28 31 33 34 35 35 36 37 35 32 31 31 33 32 32 33 34 33 32 32 31 27 26 28 29 30 33 34 32 31 30 28 27 26 26 27 26 24 23 21 20
24 24 23 23 24 25 25 27 29 28 26 24 23 23 23 24 25 27 28 30 32 36 35 29 26 25 25 25 26 25 24 26 26 25 26 30 32 33 33 35 37 34 31 29 30 31 32 32 33 34 33 32 32 31 28 26 29 31 32 34 35 33 32 30 29 28 27 27 27 26 25 23 22 20
26 25 24 24 25 26 26 26 28 28 25 24 23 24 24 23 23 24 25 27 30 34 34 28 25 25 24 24 25 27 26 26 26 25 25 28 31 34 34 35 38 36 32 29 28 29 30 31 33 34 33 32 32 31 28 27 29 32 33 35 36 34 33 31 30 29 29 29 28 27 26 24 22 21
28 26 25 25 26 28 28 27 27 27 26 24 23 24 24 23 21 22 22 23 25 28 31 29 26 24 24 23 25 27 28 27 27 26 27 29 31 35 36 37 40 39 35 31 30 29 30 31 33 34 34 33 32 30 28 28 30 33 34 36 37 35 33 32 30 30 30 30 29 29 27 25 23 21
29 28 26 25 25 27 28 29 29 28 28 26 24 24 25 26 24 22 21 21 22 24 26 29 29 25 24 25 25 26 26 27 29 28 28 30 32 35 37 39 41 41 38 34 32 31 31 32 34 35 34 33 32 30 28 29 31 34 35 37 37 36 34 32 31 31 30 30 30 30 28 26 24 22
30 28 26 25 25 26 27 29 30 29 29 29 26 25 25 27 27 26 23 21 22 25 25 27 28 26 26 27 27 25 26 28 31 31 30 30 32 35 37 39 42 42 40 38 35 33 32 33 34 35 35 34 32 30 29 30 32 34 36 37 38 37 35 33 32 32 31 31 31 30 29 27 25 24
31 30 28 26 25 25 26 27 28 29 29 29 29 28 27 27 27 27 26 24 23 25 27 27 27 27 28 29 29 29 30 31 32 31 31 31 30 33 37 40 43 44 42 40 38 36 35 35 36 37 38 37 34 32 30 31 34 36 37 38 38 37 36 34 33 33 32 31 31 31 30 29 27 25
32 32 31 28 26 25 26 26 27 27 28 28 29 29 28 27 27 28 28 28 24 24 27 29 29 30 30 31 32 33 33 31 30 31 32 34 33 33 36 40 43 44 44 43 41 39 37 37 39 40 40 39 37 35 34 34 35 37 37 38 38 38 37 36 34 33 33 32 32 31 31 30 28 26
34 33 32 31 29 28 28 28 28 28 28 28 29 30 29 28 27 26 27 29 27 25 26 28 30 32 33 32 32 34 34 33 31 31 33 36 37 37 39 41 42 44 45 44 44 42 40 38 40 41 42 41 39 38 36 36 36 37 37 38 38 39 38 37 35 34 34 33 32 32 32 30 28 27
37 36 34 33 31 30 29 30 30 30 30 29 29 29 30 30 28 26 25 28 29 28 26 27 30 32 32 32 32 33 34 34 33 33 34 36 38 39 41 42 42 42 43 45 46 44 42 40 40 41 42 42 41 39 37 37 37 37 38 38 38 39 39 38 36 35 35 34 33 33 32 31 29 28
38 38 37 35 33 32 31 31 31 32 32 31 30 29 29 30 29 27 25 25 27 28 27 27 30 31 31 32 33 32 32 33 34 35 37 38 38 39 41 41 40 39 40 46 48 46 44 43 43 43 43 42 41 39 37 37 37 38 38 38 38 39 39 39 37 36 36 35 35 34 33 31 30 28
37 38 38 37 36 34 33 33 33 33 34 33 32 31 30 29 30 30 28 26 27 28 28 27 28 30 31 31 31 29 28 30 32 35 36 37 38 39 38 39 40 38 39 45 48 48 47 45 44 43 42 41 40 39 38 38 38 38 38 38 38 38 39 39 38 37 37 36 35 34 33 32 30 29
36 37 38 37 37 37 35 34 34 34 35 35 34 33 31 29 29 30 29 27 28 29 29 29 27 27 28 30 30 28 27 27 28 29 31 33 35 36 37 39 40 39 40 44 47 48 49 47 45 43 42 40 40 40 39 38 38 38 38 38 38 38 38 39 39 39 38 37 36 35 33 32 31 29
35 37 38 38 37 37 37 36 35 35 35 36 35 34 32 30 28 27 27 26 27 29 29 29 28 25 25 27 28 28 27 26 25 26 29 33 36 38 39 40 40 40 41 44 46 49 50 49 45 43 42 41 40 40 39 38 38 38 38 37 37 37 37 38 39 39 39 38 37 35 34 33 31 29
35 36 37 37 37 37 36 36 35 36 36 37 38 38 35 32 29 27 26 25 25 26 28 29 28 26 25 25 26 28 28 27 26 27 31 36 38 39 40 41 40 41 42 45 47 48 49 47 44 42 41 41 41 40 39 38 38 38 38 37 37 37 37 37 38 39 39 38 37 36 35 34 32 30
36 36 36 36 36 36 35 34 34 34 35 37 39 40 38 36 33 30 28 27 24 24 27 27 26 25 24 25 26 28 30 29 29 30 32 33 36 39 41 40 40 41 42 43 44 46 47 44 41 39 39 39 40 40 39 38 38 38 38 38 37 36 36 37 37 37 37 37 37 36 36 35 33 30
36 36 36 36 36 35 34 33 31 32 33 34 36 37 38 38 37 35 32 30 25 23 24 25 24 22 22 23 24 26 29 30 30 30 29 30 33 38 39 39 39 41 43 43 42 45 46 45 43 41 40 41 41 40 39 39 39 39 39 38 38 37 36 36 36 36 36 36 36 36 35 35 33 30
37 37 37 37 36 36 35 32 30 29 29 30 32 33 34 34 35 36 35 32 27 23 21 22 22 22 22 22 21 20 23 28 29 28 27 28 30 32 35 39 41 41 40 39 41 44 47 47 46 43 42 42 40 39 41 41 41 40 40 39 39 38 37 37 37 36 35 34 34 34 34 33 31 28
36 36 37 37 36 36 34 32 29 27 28 28 29 30 29 28 28 29 29 28 25 22 20 19 19 20 21 22 20 17 18 22 26 27 28 29 29 29 32 36 39 40 38 36 39 44 48 48 46 42 41 40 38 37 40 42 41 41 40 40 40 40 40 39 38 37 35 34 33 33 32 30 27 25
35 35 36 36 36 36 34 32 29 27 27 28 27 27 25 24 23 22 22 21 21 20 17 15 13 14 17 20 19 18 17 18 21 24 26 28 29 28 29 32 34 36 36 35 36 41 47 48 45 42 41 40 37 35 38 41 42 41 40 40 41 41 41 41 40 38 36 34 33 31 29 27 24 22
35 35 35 36 36 35 35 34 31 29 27 27 27 25 23 22 23 22 20 20 19 17 15 11 9 8 10 14 17 18 18 17 18 20 23 25 28 27 28 31 33 33 34 35 35 38 45 48 45 43 42 40 37 35 36 38 41 42 41 41 41 41 41 41 40 38 37 35 33 31 29 27 26 25
35 34 34 35 35 36 35 35 35 33 30 28 28 27 25 24 24 24 23 22 20 19 17 14 14 13 10 8 11 14 16 17 17 18 19 22 26 28 28 30 33 34 35 36 35 36 43 47 45 42 41 38 37 37 36 36 38 41 42 40 39 38 39 38 38 38 38 36 35 34 33 32 30 28
36 33 32 33 35 36 37 37 37 38 36 32 30 30 30 29 28 26 25 25 23 23 23 22 20 19 16 12 9 10 12 14 15 17 19 19 23 28 31 31 32 33 35 35 34 34 38 41 42 40 38 35 35 37 37 35 35 37 40 40 38 37 36 36 37 38 38 37 36 35 34 32 29 26
37 36 34 33 35 37 38 38 39 40 40 38 34 32 33 33 32 29 26 26 26 25 25 25 23 21 20 16 11 10 11 11 12 14 17 17 18 23 29 31 32 33 34 35 34 34 33 34 36 38 36 35 35 37 37 36 34 34 38 40 39 38 36 36 37 38 39 38 37 35 31 28 26 22
38 39 38 36 36 38 39 39 40 40 41 42 41 38 35 34 33 31 27 26 26 25 24 23 22 20 19 18 16 15 13 11 9 8 10 12 13 16 22 27 30 32 34 33 33 32 31 31 34 37 36 35 36 36 37 36 35 34 36 38 39 39 38 38 38 39 41 40 37 34 30 26 23 20
35 39 41 41 40 41 43 43 43 43 43 43 43 43 40 36 32 31 30 29 30 29 28 27 25 23 21 20 19 18 16 14 12 8 6 6 7 10 14 19 22 24 27 29 29 29 29 30 33 35 35 34 35 36 36 34 34 35 37 39 39 38 39 42 43 43 42 40 37 34 29 25 21 17
34 38 42 44 44 44 44 45 46 46 45 45 44 44 43 40 36 34 33 32 31 31 31 32 32 32 30 27 24 20 18 19 18 14 10 6 3 3 7 11 13 15 17 21 25 28 30 32 33 33 33 33 33 35 37 35 34 35 38 40 40 40 43 45 46 45 43 41 38 34 28 23 19 16
34 37 40 42 43 44 43 44 45 46 47 46 46 45 44 43 41 38 36 34 31 29 29 30 30 31 32 32 30 27 24 21 19 16 13 11 7 4 3 5 8 11 15 17 21 26 31 35 35 33 32 33 32 32 35 37 36 37 40 41 43 46 47 46 44 42 40 38 35 30 25 21 18 15
34 36 37 39 40 42 42 42 43 45 46 46 46 46 45 44 43 42 40 38 34 31 30 30 29 29 30 31 31 30 28 26 23 21 18 15 13 12 11 11 11 12 14 18 20 23 28 34 37 35 33 33 32 31 31 32 35 38 42 43 44 47 48 45 42 39 35 29 26 24 22 20 18 16
32 34 35 35 37 38 39 40 41 43 43 44 45 45 45 45 44 43 43 41 39 36 33 32 31 31 30 30 30 29 29 28 27 26 25 23 21 20 18 17 16 15 15 18 20 23 26 29 34 36 36 35 33 31 30 30 34 39 42 45 47 48 47 44 39 34 29 24 20 19 19 19 18 18
29 31 32 32 33 35 35 37 39 40 41 41 42 42 43 44 43 42 42 41 41 40 37 34 33 33 33 33 32 31 31 30 29 28 28 27 25 25 24 23 21 18 17 17 18 20 24 26 29 33 36 37 37 35 32 33 37 39 40 42 47 48 44 40 35 29 25 22 19 16 17 19 20 20
26 27 29 30 31 32 33 34 37 39 39 39 39 40 40 41 41 41 41 41 42 41 39 37 35 34 34 34 34 33 33 32 31 31 30 30 28 27 27 25 24 22 19 17 16 16 19 23 26 29 33 37 40 41 38 37 40 39 36 38 44 45 39 34 31 28 25 23 22 20 19 21 22 23
25 24 26 27 28 30 31 31 34 36 38 39 39 38 38 38 40 41 42 42 42 41 40 39 37 35 34 33 32 32 32 32 33 32 32 32 31 29 28 27 26 26 25 23 21 18 16 20 24 27 32 37 40 42 43 42 41 39 35 34 36 37 32 28 27 27 25 24 24 24 24 24 24 25
25 23 23 24 25 27 28 29 31 33 35 36 37 37 36 35 36 38 40 41 42 42 40 38 36 34 34 33 32 31 31 31 31 31 31 31 31 29 28 28 27 28 30 31 30 27 23 22 23 25 30 36 38 39 41 40 37 33 30 28 26 25 23 21 21 23 24 24 24 26 27 27 26 25
25 23 22 23 24 25 27 28 29 31 32 33 34 34 34 33 32 34 35 37 39 40 40 39 36 33 32 32 32 32 32 31 30 29 29 30 30 29 28 28 28 28 30 32 33 31 28 26 26 28 30 33 36 36 36 35 33 30 28 27 25 21 18 15 14 16 20 23 24 26 27 26 25 24
25 23 22 22 23 25 25 26 27 28 30 31 31 31 31 30 29 29 32 34 35 37 38 39 37 34 32 30 31 32 33 32 30 28 27 27 28 28 28 28 28 29 29 30 29 28 26 24 25 28 29 29 31 32 33 32 31 29 28 27 25 22 19 17 16 16 19 21 22 23 25 24 23 22
25 22 21 22 23 24 23 24 25 27 28 28 29 29 29 28 27 27 29 31 33 33 34 35 36 36 34 31 29 30 31 32 30 28 27 26 26 26 27 27 27 27 28 28 27 24 22 21 21 22 23 24 26 30 32 30 29 27 27 26 25 23 21 20 19 19 19 19 18 17 17 17 17 16
24 23 22 21 22 22 22 23 24 26 27 28 28 28 27 26 25 25 26 28 29 30 31 32 33 34 34 32 30 29 29 29 29 28 27 26 25 25 25 25 25 26 26 26 26 24 22 21 19 18 19 20 22 26 29 29 28 27 26 24 24 23 23 22 21 20 19 19 17 14 11 10 9 9
22 22 22 22 21 21 22 23 25 26 27 28 28 27 25 24 24 22 23 24 26 26 28 28 29 30 31 31 31 29 27 26 26 26 25 25 24 24 24 23 24 25 25 25 25 25 24 22 21 21 20 19 19 22 25 25 25 24 23 22 21 22 23 22 22 21 19 17 15 12 10 9 8 7
Wind_Direction
312 308 307 308 309 307 302 299 299 299 297 294 289 284 284 282 276 273 270 268 270 272 270 265 253 240 233 231 231 233 235 235 234 233 231 230 229 224 219 219 222 222 220 219 220 217 213 213 212 213 217 215 214 216 216 215 212 207 201 197 196 195 192 191 192 195 195 192 189 185 180 176 173 170
313 311 310 311 312 313 309 301 298 299 298 295 291 282 281 285 280 275 272 271 271 270 268 266 253 237 230 228 228 231 233 234 233 232 230 228 227 223 219 220 221 221 220 218 220 219 215 214 214 215 218 217 214 216 218 217 213 209 203 198 197 197 194 193 194 196 197 196 193 187 180 177 175 174
313 312 313 314 312 314 316 309 301 299 297 296 294 286 282 282 278 277 274 270 270 269 266 264 255 242 236 230 228 231 233 235 233 230 228 225 225 222 219 220 221 221 220 218 219 219 216 216 216 217 221 220 219 220 220 217 214 210 205 200 198 199 196 196 196 197 199 199 194 187 182 180 179 178
313 314 315 316 315 315 317 316 309 303 299 296 293 289 287 283 277 275 271 267 269 269 263 259 252 247 245 237 231 231 234 235 233 229 226 224 222 221 219 220 221 221 220 218 219 219 216 216 217 219 221 221 221 223 221 216 213 209 206 201 199 199 199 198 199 199 200 198 192 188 185 184 184 184
314 316 318 319 318 316 314 314 311 305 301 297 292 290 290 287 280 274 269 265 267 267 261 254 250 250 250 243 236 235 234 233 230 227 225 222 221 221 219 219 220 220 219 218 219 219 217 216 217 219 222 221 221 223 222 216 212 208 205 202 200 200 200 201 201 201 200 197 192 190 189 188 189 191
315 317 320 321 319 315 311 310 308 305 302 299 295 292 289 286 280 275 269 265 265 265 260 254 251 252 251 244 237 234 232 230 228 227 225 223 222 222 220 218 216 217 217 216 217 218 217 216 217 219 221 220 220 223 222 217 212 208 204 203 201 200 202 202 203 203 200 197 195 193 192 192 194 197
318 318 320 321 319 314 310 308 307 304 301 299 296 293 291 289 282 277 275 272 267 262 259 254 251 250 250 243 233 229 230 230 231 232 229 226 225 224 221 215 212 212 213 213 214 216 217 217 217 219 220 218 219 221 221 216 212 207 204 203 202 201 203 203 204 203 200 198 197 196 196 197 199 201
324 320 320 321 320 317 312 308 306 303 298 297 296 294 293 291 287 283 279 278 272 262 256 252 249 249 251 245 233 228 228 229 231 233 232 229 227 225 220 213 209 209 210 212 213 214 216 217 217 217 218 217 218 221 221 217 212 207 203 203 202 201 203 204 204 203 200 199 199 199 200 201 203 206
333 327 323 321 320 320 317 312 309 305 299 295 295 296 293 290 291 290 285 282 275 261 252 249 248 249 251 246 236 229 228 229 230 231 231 231 229 226 220 213 210 209 208 211 214 215 217 217 216 215 215 216 218 220 221 218 212 206 203 203 203 202 203 204 204 203 201 200 200 202 203 205 207 211
341 336 329 324 321 320 320 318 316 313 306 298 293 295 296 293 291 290 287 288 281 265 256 254 252 248 247 246 239 232 231 232 232 230 230 231 231 228 222 216 213 211 209 211 214 215 216 216 214 214 214 215 217 220 220 218 212 206 204 203 203 203 203 203 203 203 203 202 203 204 206 208 211 215
345 342 337 330 325 322 322 322 320 318 314 309 302 299 298 295 292 288 285 286 285 277 266 260 256 250 246 248 247 240 236 234 235 234 230 229 230 229 225 220 216 213 211 212 215 217 216 214 212 213 213 214 217 218 219 217 211 205 204 204 204 204 203 203 204 204 204 205 206 207 209 211 214 218
344 344 341 336 331 328 325 324 323 321 318 314 311 306 299 294 291 289 285 281 281 281 274 266 261 254 246 246 248 246 240 234 233 234 233 231 230 228 226 222 218 215 212 212 215 216 216 213 211 212 213 215 216 217 216 216 211 206 204 204 204 204 204 203 204 205 206 207 208 210 211 213 216 220
341 341 341 340 335 330 325 321 320 321 320 318 316 312 306 298 292 290 287 283 279 278 275 271 266 258 249 245 244 243 241 237 236 236 234 233 232 230 228 224 220 217 215 214 214 214 214 212 209 210 212 214 215 215 214 214 210 206 205 204 204 205 205 204 205 206 208 209 210 211 213 215 218 222
342 340 339 338 335 329 324 320 316 314 314 315 315 312 310 305 298 293 289 287 284 278 273 270 265 258 251 246 243 242 243 241 239 236 234 232 230 230 229 225 221 219 217 217 217 215 213 212 210 209 210 213 214 212 211 210 209 207 205 205 205 206 206 206 206 208 209 210 211 212 214 217 220 224
348 344 340 338 336 332 329 325 321 316 312 310 308 305 304 305 304 300 294 290 288 282 274 270 266 259 254 250 245 243 243 243 239 237 236 232 226 225 225 223 221 220 219 217 217 215 213 213 213 211 210 213 213 211 208 208 208 207 206 205 205 206 208 208 208 209 210 211 212 213 216 218 222 226
353 350 345 341 338 336 333 329 324 320 316 312 309 303 298 296 298 299 296 291 289 285 278 271 266 262 260 258 252 245 242 243 241 239 238 235 228 225 225 224 223 222 219 216 216 215 213 214 215 214 213 214 213 210 208 207 208 207 207 207 206 207 209 211 211 211 211 213 213 215 217 220 223 227
356 354 350 346 343 340 337 333 328 325 321 318 314 310 302 295 292 291 289 285 284 283 280 273 266 263 263 261 257 252 246 243 242 239 237 235 232 229 229 229 229 227 222 217 215 214 213 214 216 216 214 215 214 212 209 208 208 208 208 208 208 208 209 212 213 213 213 214 215 216 218 221 224 228
357 355 353 351 349 345 341 338 335 331 327 324 321 317 312 304 296 293 290 284 278 276 276 273 267 263 261 260 260 258 251 246 245 241 238 235 233 232 232 233 232 231 228 222 216 212 212 213 215 217 216 215 215 214 211 209 209 209 209 209 209 209 210 213 215 216 215 215 217 218 220 222 225 229
359 357 356 354 352 349 346 343 341 336 332 329 326 322 318 312 305 301 299 291 281 275 273 271 270 266 260 257 258 258 254 250 249 248 246 243 237 233 232 231 229 229 229 225 218 213 212 212 213 216 217 216 216 216 213 210 210 210 209 210 210 210 211 213 215 217 217 217 218 220 222 224 227 231
1 360 358 355 352 350 348 346 344 341 336 332 330 326 321 318 312 307 305 298 285 278 274 271 269 268 265 260 256 255 253 252 252 250 245 239 231 227 226 226 227 227 227 224 220 215 212 211 211 213 214 216 218 218 215 212 210 210 210 211 211 212 212 214 216 218 218 219 220 222 224 226 229 232
2 1 359 356 353 351 349 347 344 342 340 337 335 332 328 324 319 313 308 301 288 277 273 270 267 266 266 262 255 253 252 251 250 245 237 231 228 224 220 220 224 226 225 223 220 215 212 211 211 211 211 215 219 220 217 214 212 211 211 212 212 213 213 214 216 218 219 220 221 223 224 227 230 232
2 1 360 357 354 351 349 346 344 342 341 339 339 338 335 331 328 323 317 310 297 280 270 267 265 264 264 261 254 250 249 248 248 245 239 234 231 226 221 220 223 224 224 224 220 214 212 212 211 210 211 215 220 222 218 216 215 212 211 211 212 213 214 215 217 218 219 221 222 223 225 227 229 232
2 1 359 358 356 353 350 347 343 341 341 341 341 341 338 335 334 333 330 325 314 295 277 269 266 263 263 263 256 247 244 244 245 245 245 239 233 230 226 224 222 220 221 223 219 211 209 210 209 209 210 212 216 218 215 216 216 214 212 211 211 212 213 215 217 218 219 220 221 223 225 227 229 231
3 2 1 1 359 356 353 349 344 342 342 343 343 343 340 337 336 333 332 330 325 312 294 279 272 266 263 264 262 250 242 241 241 243 245 242 237 235 232 228 226 226 227 225 219 211 208 208 209 210 210 211 211 210 210 214 217 215 213 211 210 210 211 213 215 216 217 219 220 222 225 227 229 230
8 7 6 6 5 1 358 354 348 345 345 345 345 345 345 341 336 332 332 334 333 323 303 284 274 268 261 261 263 257 247 242 240 241 243 243 240 239 236 232 230 231 233 229 222 214 208 207 208 207 208 211 211 209 208 212 216 215 213 211 210 209 210 211 212 213 213 215 218 221 223 225 226 227
14 14 13 12 10 8 6 3 359 354 352 351 350 348 348 348 347 345 344 346 345 334 313 290 280 274 263 258 259 257 253 247 242 239 240 241 241 241 240 238 237 237 235 231 226 219 212 209 208 207 206 208 210 212 213 213 213 213 212 211 210 210 211 211 211 210 210 210 212 215 217 216 213 209
16 17 17 15 13 12 12 12 11 8 3 2 1 357 355 357 1 3 4 5 6 357 338 318 314 314 285 265 260 256 253 251 247 243 240 239 238 238 239 238 239 241 239 233 229 224 217 212 210 209 209 208 209 213 216 215 213 211 210 210 209 210 211 212 212 210 208 207 205 203 201 198 193 189
17 17 18 17 15 15 16 17 18 17 14 12 11 9 8 8 9 13 17 19 20 19 13 3 357 2 358 312 280 269 261 255 250 249 247 241 234 233 234 233 231 233 234 233 230 226 220 215 213 211 210 211 213 216 216 215 212 209 207 206 206 207 209 211 210 209 206 203 199 194 190 188 186 187
17 17 17 17 16 17 18 19 21 22 21 20 18 18 19 19 16 17 21 25 28 31 33 29 19 13 15 9 343 316 294 277 264 256 254 247 234 228 229 230 229 229 230 229 228 228 225 221 218 214 210 212 220 222 218 214 210 206 204 202 199 200 203 204 204 203 199 194 191 189 188 189 188 186
18 21 20 18 17 18 20 21 23 24 23 24 23 23 25 25 23 21 22 26 30 34 37 38 35 29 26 24 16 359 337 315 295 274 261 251 236 227 226 228 228 227 227 226 225 226 226 225 223 218 213 213 220 224 223 219 210 202 201 201 197 194 194 195 196 195 189 184 182 182 182 183 182 177
19 23 25 22 20 21 22 23 24 25 25 26 26 25 26 29 29 28 29 30 33 35 35 36 37 34 31 29 28 22 10 353 334 305 277 256 234 220 220 224 225 225 225 224 223 221 220 222 224 221 217 216 217 218 221 222 215 204 198 199 200 196 190 188 186 184 181 178 176 173 171 170 169 167
19 24 26 25 23 23 23 23 24 25 26 27 28 27 27 29 30 31 33 36 37 37 36 36 36 34 32 31 32 30 27 26 22 5 328 285 243 215 206 208 212 218 221 220 218 215 213 217 221 220 218 219 218 216 214 213 213 209 200 195 196 192 184 180 178 176 176 174 169 165 163 162 163 161
20 24 25 25 24 23 23 23 23 24 25 26 28 29 29 29 30 31 31 34 36 36 36 37 38 38 38 38 38 37 37 38 36 29 23 22 360 237 204 189 185 192 203 208 210 208 204 206 213 215 215 216 218 218 214 206 200 201 198 191 186 180 175 174 174 172 171 170 164 160 158 157 158 157
22 24 25 25 25 24 25 25 25 25 24 25 26 28 29 31 32 33 32 32 32 32 33 34 36 38 40 40 41 43 44 45 44 42 42 45 48 67 123 139 143 153 165 174 187 197 200 201 203 202 203 207 207 207 210 208 196 187 185 184 179 171 167 169 170 166 165 167 164 159 156 155 154 151
23 25 26 25 25 26 27 28 28 26 25 25 25 27 29 31 32 34 35 34 34 33 33 33 33 35 37 39 41 43 45 46 49 51 55 58 64 76 90 95 100 117 137 143 151 168 185 196 199 193 189 193 191 182 186 198 196 183 173 169 169 167 164 164 164 161 160 164 164 158 155 153 150 145
25 25 26 26 26 26 27 27 27 26 26 26 26 26 28 30 31 33 34 36 37 37 37 38 38 39 41 41 40 40 41 43 45 47 51 56 61 67 76 84 92 104 120 127 133 144 157 174 189 189 179 173 167 157 156 171 183 184 175 164 160 162 161 159 158 158 158 158 158 158 156 151 145 142
26 25 26 27 27 28 27 26 26 26 26 26 26 26 27 28 30 32 33 35 38 39 41 43 44 45 46 47 47 47 45 46 47 48 50 53 56 60 65 70 75 84 98 112 127 141 147 153 168 176 170 159 149 142 144 154 162 172 179 172 162 158 159 156 153 152 150 147 145 148 149 145 140 140
24 24 25 27 27 27 27 26 26 26 25 25 25 26 27 27 28 30 32 34 36 38 40 43 46 47 48 49 50 50 50 50 51 51 52 53 55 59 64 67 69 72 78 90 108 132 149 152 154 158 158 151 142 140 143 148 148 155 172 178 167 157 155 154 148 143 140 138 136 138 140 139 139 140
23 25 26 27 26 24 24 25 26 25 24 24 23 24 26 27 27 29 31 33 35 36 39 42 45 47 48 48 49 50 50 50 50 51 52 53 55 58 63 67 71 74 76 79 84 99 125 141 145 149 150 145 140 141 143 144 143 147 157 167 162 153 150 150 146 140 138 138 137 138 140 141 141 141
25 29 28 26 24 21 19 21 23 23 21 20 21 22 23 26 28 29 30 32 34 35 37 39 42 45 47 47 48 49 50 50 50 51 53 55 56 58 62 66 70 74 76 77 79 82 91 105 119 134 140 137 136 138 138 136 137 142 146 148 148 144 144 147 146 141 139 139 140 141 143 143 143 143
26 30 29 26 23 20 18 18 20 19 18 17 17 19 22 25 29 31 31 31 33 35 37 38 40 42 44 46 46 48 49 49 50 52 55 57 58 60 61 64 66 70 72 73 74 77 82 92 104 115 123 127 130 131 129 127 132 138 140 139 136 132 130 131 132 131 133 137 140 142 142 143 143 143
24 27 28 25 22 19 18 18 19 18 17 15 14 17 20 24 28 32 33 32 33 35 37 38 39 40 42 44 45 47 48 48 49 52 55 58 61 62 63 63 62 64 69 71 70 74 82 93 101 106 111 120 126 127 125 127 131 135 135 134 131 128 125 123 124 126 129 134 138 140 141 145 147 148
23 25 26 23 20 17 17 18 19 18 16 14 13 14 19 24 28 32 34 33 32 33 35 36 38 39 40 41 42 44 45 46 47 50 53 57 60 62 63 63 62 63 67 71 72 75 82 90 95 99 105 114 121 122 123 127 130 132 134 135 135 133 131 131 132 131 131 132 135 135 137 142 146 149
21 22 22 20 18 16 17 18 18 16 14 12 12 14 20 25 28 33 35 34 32 32 32 33 34 35 36 38 39 40 41 43 45 48 51 54 58 62 63 64 65 68 71 75 77 78 81 85 88 91 98 110 118 122 124 127 130 132 135 139 141 139 137 136 137 136 135 136 136 132 130 133 135 142
16 17 18 17 16 15 15 15 16 15 13 12 12 15 22 27 29 32 37 36 33 32 31 30 30 30 31 35 38 39 39 39 42 46 50 51 54 59 62 64 68 72 75 78 81 82 82 84 86 87 93 104 115 121 125 128 130 132 135 139 144 144 143 141 141 140 140 141 139 132 133 138 138 146
Height
1505 1504 1503 1502 1501 1500 1499 1497 1496 1494 1493 1491 1490 1490 1489 1488 1485 1483 1481 1480 1480 1479 1480 1481 1481 1482 1484 1485 1486 1489 1491 1493 1495 1497 1499 1501 1503 1506 1508 1510 1512 1514 1516 1519 1521 1523 1526 1528 1531 1532 1534 1535 1537 1539 1541 1543 1544 1546 1547 1549 1551 1553 1555 1557 1559 1561 1563 1564 1566 1567 1568 1570 1571 1573
1503 1501 1500 1499 1497 1496 1495 1493 1492 1491 1489 1488 1487 1486 1486 1485 1483 1480 1479 1477 1477 1477 1477 1477 1478 1479 1480 1482 1483 1485 1487 1489 1491 1493 1495 1497 1500 1502 1504 1506 1508 1511 1513 1515 1518 1520 1523 1526 1528 1530 1531 1533 1534 1537 1539 1541 1542 1544 1546 1547 1550 1552 1553 1556 1558 1560 1562 1563 1565 1566 1568 1569 1571 1572
1500 1498 1497 1496 1494 1493 1492 1490 1489 1487 1486 1485 1483 1482 1482 1481 1480 1478 1477 1474 1473 1474 1474 1474 1476 1477 1477 1479 1481 1482 1484 1486 1487 1488 1490 1494 1496 1498 1501 1503 1505 1507 1510 1512 1515 1517 1520 1523 1525 1527 1529 1530 1532 1534 1536 1538 1540 1542 1544 1546 1548 1550 1552 1554 1556 1558 1560 1562 1564 1565 1567 1568 1570 1571
1498 1496 1494 1493 1492 1490 1489 1487 1486 1484 1483 1482 1480 1479 1478 1478 1477 1476 1475 1472 1469 1471 1472 1472 1473 1474 1475 1476 1477 1479 1481 1483 1483 1484 1487 1490 1493 1494 1496 1499 1501 1504 1507 1509 1512 1514 1517 1519 1522 1524 1526 1528 1530 1532 1534 1536 1538 1540 1542 1544 1546 1548 1550 1552 1554 1557 1559 1561 1563 1564 1566 1567 1569 1571
1496 1494 1492 1490 1489 1488 1486 1485 1483 1482 1480 1479 1477 1476 1475 1474 1473 1473 1471 1469 1467 1467 1468 1469 1470 1471 1472 1472 1474 1475 1478 1479 1480 1481 1483 1486 1487 1490 1492 1495 1498 1500 1503 1506 1508 1511 1513 1516 1519 1521 1523 1525 1527 1530 1532 1534 1535 1537 1539 1541 1544 1546 1548 1550 1553 1555 1557 1559 1561 1563 1565 1566 1568 1570
1494 1492 1490 1488 1487 1485 1484 1483 1481 1479 1478 1476 1474 1473 1472 1471 1470 1469 1468 1467 1465 1463 1464 1465 1466 1467 1468 1469 1470 1471 1473 1475 1476 1477 1479 1481 1483 1486 1488 1492 1494 1497 1500 1503 1505 1507 1510 1512 1515 1518 1520 1522 1524 1527 1529 1531 1533 1535 1537 1539 1542 1544 1546 1548 1551 1553 1555 1558 1560 1562 1563 1565 1567 1569
1492 1490 1488 1486 1485 1483 1481 1480 1478 1477 1475 1473 1471 1470 1469 1468 1466 1465 1464 1463 1462 1460 1460 1462 1463 1464 1464 1465 1466 1468 1470 1472 1473 1474 1475 1477 1480 1482 1485 1488 1491 1494 1497 1499 1501 1504 1506 1509 1512 1514 1517 1519 1521 1524 1526 1528 1530 1532 1535 1537 1539 1542 1544 1546 1549 1551 1554 1556 1558 1560 1562 1564 1565 1567
1490 1488 1486 1485 1483 1481 1479 1477 1476 1474 1472 1470 1468 1467 1466 1465 1463 1462 1461 1460 1459 1458 1457 1458 1459 1460 1461 1461 1463 1465 1467 1468 1469 1471 1472 1474 1476 1478 1481 1485 1488 1491 1494 1496 1498 1500 1503 1505 1508 1511 1513 1516 1518 1521 1523 1525 1527 1529 1532 1534 1537 1539 1542 1544 1546 1549 1551 1554 1556 1558 1560 1562 1564 1565
1489 1487 1485 1483 1481 1479 1477 1475 1473 1471 1469 1468 1466 1464 1462 1461 1459 1458 1457 1457 1456 1454 1454 1455 1456 1457 1457 1458 1460 1462 1463 1464 1466 1467 1469 1471 1473 1475 1478 1481 1485 1488 1491 1493 1495 1497 1500 1502 1505 1508 1510 1513 1515 1518 1520 1522 1524 1527 1529 1531 1534 1537 1539 1541 1544 1547 1549 1552 1554 1556 1558 1560 1561 1563
1488 1486 1484 1482 1480 1478 1475 1473 1471 1469 1467 1465 1463 1461 1459 1457 1456 1454 1453 1453 1453 1452 1452 1452 1453 1453 1454 1455 1457 1458 1460 1461 1462 1464 1466 1468 1470 1472 1474 1477 1480 1484 1486 1489 1492 1494 1496 1499 1501 1504 1507 1509 1512 1515 1517 1519 1521 1523 1526 1528 1531 1534 1537 1539 1541 1544 1547 1549 1552 1554 1556 1557 1559 1561
1488 1485 1483 1481 1479 1477 1474 1472 1469 1467 1465 1462 1460 1458 1456 1454 1453 1451 1450 1450 1450 1449 1449 1449 1450 1450 1451 1452 1453 1455 1457 1458 1459 1460 1462 1464 1465 1468 1470 1473 1476 1479 1483 1486 1488 1490 1493 1495 1498 1501 1503 1506 1509 1511 1514 1516 1518 1520 1523 1525 1528 1531 1534 1536 1539 1541 1544 1546 1549 1551 1553 1555 1557 1559
1487 1485 1483 1480 1478 1475 1473 1471 1468 1466 1463 1460 1458 1456 1454 1452 1450 1449 1448 1447 1447 1446 1446 1446 1446 1447 1448 1448 1449 1452 1454 1454 1455 1456 1458 1460 1462 1464 1466 1468 1472 1475 1478 1481 1484 1487 1489 1492 1495 1498 1500 1503 1505 1508 1510 1513 1515 1517 1520 1522 1525 1528 1531 1533 1536 1539 1541 1544 1546 1548 1551 1552 1554 1556
1486 1483 1481 1479 1477 1474 1472 1470 1467 1465 1462 1459 1457 1454 1451 1449 1447 1446 1445 1444 1444 1444 1443 1443 1443 1444 1444 1444 1446 1447 1448 1449 1450 1453 1455 1456 1458 1460 1462 1464 1466 1470 1474 1477 1480 1482 1485 1487 1490 1493 1496 1498 1501 1504 1506 1509 1511 1514 1517 1519 1522 1526 1528 1531 1533 1536 1538 1541 1543 1546 1548 1550 1551 1553
1484 1482 1479 1477 1475 1473 1470 1467 1465 1463 1461 1458 1455 1452 1450 1448 1445 1443 1442 1441 1441 1441 1440 1440 1440 1440 1440 1440 1441 1442 1443 1445 1447 1449 1450 1451 1454 1456 1457 1458 1460 1464 1469 1472 1475 1478 1480 1483 1485 1488 1491 1494 1497 1499 1501 1504 1507 1510 1513 1516 1519 1523 1525 1528 1530 1533 1535 1538 1541 1543 1545 1547 1549 1550
1482 1479 1477 1475 1472 1469 1466 1463 1461 1459 1457 1455 1452 1450 1448 1446 1444 1441 1439 1438 1438 1437 1437 1436 1436 1436 1435 1436 1437 1438 1439 1441 1443 1445 1446 1446 1448 1450 1452 1453 1454 1458 1463 1467 1470 1473 1476 1479 1481 1483 1487 1490 1492 1494 1497 1500 1504 1507 1510 1513 1516 1519 1522 1525 1528 1530 1532 1535 1537 1540 1542 1544 1546 1547
1481 1478 1475 1473 1470 1467 1463 1460 1457 1454 1451 1450 1448 1446 1444 1443 1442 1440 1437 1436 1435 1434 1433 1432 1432 1431 1431 1432 1433 1434 1435 1437 1438 1440 1441 1442 1444 1445 1446 1448 1449 1452 1457 1461 1464 1468 1472 1475 1477 1479 1483 1485 1488 1490 1494 1498 1501 1504 1507 1510 1513 1516 1519 1522 1525 1527 1530 1532 1534 1536 1538 1540 1543 1545
1481 1477 1474 1471 1468 1465 1462 1458 1454 1450 1447 1445 1443 1441 1440 1439 1437 1437 1435 1434 1432 1431 1429 1428 1427 1427 1428 1428 1428 1429 1431 1432 1433 1434 1435 1436 1438 1439 1441 1443 1446 1450 1454 1456 1459 1463 1467 1470 1472 1475 1478 1482 1484 1488 1491 1495 1498 1501 1504 1507 1510 1513 1516 1519 1522 1524 1527 1529 1531 1533 1535 1537 1539 1541
1482 1478 1474 1470 1467 1464 1460 1456 1452 1448 1445 1441 1439 1437 1435 1434 1432 1432 1431 1430 1429 1427 1425 1424 1422 1422 1423 1424 1424 1426 1427 1427 1428 1429 1430 1432 1433 1435 1438 1441 1444 1448 1450 1452 1455 1458 1461 1465 1468 1471 1475 1478 1481 1484 1488 1491 1495 1498 1501 1504 1506 1509 1513 1516 1519 1521 1524 1526 1528 1530 1532 1534 1536 1538
1483 1479 1474 1470 1467 1463 1459 1456 1452 1448 1444 1440 1436 1433 1431 1429 1428 1427 1426 1425 1424 1422 1421 1420 1418 1418 1419 1419 1420 1422 1423 1423 1424 1425 1427 1428 1430 1432 1435 1438 1440 1444 1446 1448 1451 1454 1456 1460 1463 1467 1472 1476 1478 1481 1485 1488 1492 1495 1498 1501 1503 1506 1509 1512 1515 1518 1520 1523 1525 1528 1530 1532 1534 1535
1483 1479 1475 1471 1467 1463 1459 1456 1452 1448 1444 1439 1435 1431 1428 1425 1423 1423 1422 1421 1419 1418 1417 1416 1415 1415 1415 1415 1416 1417 1418 1419 1421 1422 1423 1425 1426 1428 1431 1432 1435 1438 1441 1443 1446 1448 1451 1455 1459 1464 1469 1472 1475 1478 1481 1485 1488 1491 1494 1498 1500 1503 1506 1509 1512 1515 1517 1520 1523 1525 1527 1529 1531 1533
1483 1480 1476 1472 1467 1463 1459 1455 1452 1448 1443 1439 1434 1429 1425 1422 1419 1417 1416 1415 1415 1414 1413 1412 1412 1412 1412 1412 1412 1413 1414 1415 1417 1418 1418 1419 1421 1424 1426 1428 1430 1433 1436 1438 1441 1444 1448 1451 1455 1460 1465 1468 1471 1474 1478 1481 1485 1488 1491 1494 1497 1500 1503 1506 1509 1511 1514 1517 1519 1522 1524 1526 1528 1529
1483 1480 1476 1473 1468 1464 1460 1455 1452 1448 1443 1439 1434 1429 1424 1419 1416 1413 1411 1409 1409 1409 1408 1408 1408 1408 1408 1408 1408 1409 1410 1411 1412 1413 1413 1415 1417 1419 1421 1424 1427 1430 1431 1433 1437 1441 1444 1448 1452 1456 1461 1465 1468 1470 1473 1477 1481 1484 1487 1490 1493 1497 1500 1502 1505 1508 1511 1514 1516 1518 1520 1522 1524 1526
1483 1480 1476 1473 1469 1464 1460 1456 1452 1448 1444 1440 1435 1430 1425 1419 1414 1411 1408 1405 1404 1403 1403 1404 1404 1404 1404 1404 1404 1404 1406 1407 1408 1408 1410 1411 1413 1415 1417 1420 1422 1424 1425 1428 1433 1436 1439 1443 1446 1450 1454 1458 1461 1464 1468 1472 1476 1480 1483 1486 1489 1493 1496 1499 1502 1505 1507 1510 1512 1514 1516 1518 1521 1523
1483 1479 1476 1472 1468 1464 1460 1456 1452 1448 1444 1440 1436 1431 1426 1420 1415 1411 1407 1404 1402 1400 1399 1399 1400 1400 1399 1400 1400 1400 1401 1403 1404 1405 1406 1407 1409 1411 1413 1415 1416 1417 1419 1423 1427 1431 1434 1438 1440 1444 1448 1451 1454 1458 1463 1468 1471 1475 1478 1482 1485 1489 1492 1495 1498 1501 1504 1507 1509 1511 1513 1515 1518 1520
1484 1480 1476 1472 1469 1465 1460 1456 1452 1448 1445 1441 1437 1432 1428 1423 1418 1413 1408 1404 1401 1399 1397 1396 1396 1396 1396 1396 1397 1397 1398 1399 1400 1402 1403 1404 1405 1407 1409 1410 1411 1413 1416 1420 1422 1425 1428 1432 1436 1440 1445 1448 1450 1454 1458 1463 1467 1470 1474 1478 1481 1484 1487 1490 1493 1497 1500 1503 1506 1508 1511 1513 1515 1517
1485 1482 1478 1474 1471 1467 1462 1457 1453 1449 1445 1441 1437 1433 1428 1424 1419 1414 1409 1404 1401 1398 1396 1394 1393 1393 1393 1394 1395 1395 1395 1396 1396 1398 1399 1400 1402 1404 1405 1406 1408 1410 1413 1417 1419 1421 1424 1427 1431 1435 1439 1443 1447 1451 1454 1458 1462 1466 1469 1473 1476 1479 1482 1485 1489 1492 1495 1499 1502 1505 1508 1510 1512 1515
1488 1484 1481 1477 1473 1469 1464 1459 1454 1450 1445 1441 1437 1433 1428 1424 1419 1415 1410 1405 1402 1399 1396 1394 1393 1392 1391 1391 1392 1392 1393 1393 1394 1394 1396 1397 1398 1400 1402 1404 1406 1408 1411 1414 1417 1418 1420 1423 1427 1430 1434 1439 1443 1447 1451 1454 1457 1460 1464 1467 1471 1475 1478 1481 1485 1489 1492 1495 1498 1501 1504 1507 1509 1511
1491 1487 1483 1479 1475 1471 1466 1461 1456 1451 1447 1442 1438 1433 1429 1424 1420 1415 1411 1407 1403 1400 1397 1395 1394 1393 1391 1390 1391 1391 1390 1391 1391 1392 1392 1393 1395 1397 1399 1401 1403 1405 1408 1412 1415 1416 1418 1421 1424 1428 1431 1436 1440 1444 1447 1451 1453 1456 1459 1462 1467 1470 1474 1478 1482 1486 1488 1491 1494 1497 1500 1502 1505 1508
1494 1489 1485 1481 1477 1472 1467 1462 1457 1453 1448 1444 1439 1435 1430 1425 1421 1417 1413 1409 1405 1401 1399 1396 1396 1395 1394 1392 1391 1390 1390 1390 1390 1390 1390 1391 1392 1394 1396 1398 1400 1402 1404 1408 1412 1414 1416 1419 1423 1426 1429 1434 1438 1442 1445 1449 1451 1453 1456 1458 1462 1467 1471 1475 1479 1482 1485 1489 1492 1495 1498 1501 1504 1507
1495 1491 1486 1482 1478 1474 1469 1465 1460 1455 1450 1445 1440 1436 1431 1427 1423 1419 1416 1412 1408 1405 1402 1400 1398 1398 1398 1395 1392 1390 1390 1390 1389 1389 1389 1389 1390 1391 1393 1395 1397 1399 1401 1405 1409 1411 1414 1418 1421 1424 1427 1431 1435 1440 1443 1446 1449 1452 1454 1456 1459 1463 1468 1473 1477 1481 1484 1487 1491 1495 1498 1502 1504 1506
1496 1492 1488 1484 1480 1476 1472 1467 1462 1457 1452 1447 1442 1438 1434 1430 1427 1423 1420 1416 1412 1409 1407 1404 1403 1402 1400 1397 1393 1391 1391 1391 1391 1390 1390 1389 1389 1390 1391 1393 1394 1396 1398 1401 1405 1408 1411 1414 1418 1421 1424 1427 1431 1436 1441 1444 1446 1449 1452 1455 1457 1460 1464 1469 1475 1479 1483 1486 1490 1494 1497 1500 1502 1504
1498 1494 1489 1485 1481 1476 1471 1467 1463 1459 1454 1450 1446 1442 1438 1434 1430 1427 1423 1420 1416 1413 1411 1408 1406 1404 1401 1398 1396 1394 1394 1394 1394 1393 1392 1391 1391 1391 1391 1392 1393 1395 1396 1399 1401 1405 1408 1411 1415 1418 1422 1425 1428 1433 1437 1441 1443 1445 1448 1452 1456 1459 1462 1467 1471 1476 1481 1484 1487 1491 1495 1498 1500 1503
1499 1494 1489 1485 1481 1477 1472 1469 1465 1461 1457 1454 1450 1446 1442 1438 1434 1430 1426 1422 1419 1417 1415 1412 1409 1407 1405 1402 1400 1398 1397 1397 1397 1396 1395 1394 1393 1394 1394 1393 1393 1394 1395 1397 1400 1402 1405 1408 1412 1416 1420 1423 1427 1430 1433 1437 1441 1443 1445 1449 1454 1458 1462 1466 1470 1474 1478 1481 1484 1488 1492 1496 1499 1501
1500 1495 1491 1488 1484 1480 1476 1472 1469 1465 1461 1458 1454 1450 1447 1442 1438 1434 1430 1427 1424 1422 1419 1417 1414 1412 1409 1406 1404 1402 1401 1401 1401 1400 1398 1397 1396 1396 1396 1397 1396 1395 1396 1397 1399 1401 1403 1405 1408 1412 1417 1421 1425 1429 1431 1433 1436 1440 1444 1448 1452 1456 1462 1468 1472 1475 1479 1481 1483 1487 1491 1495 1498 1500
1501 1497 1494 1491 1488 1484 1481 1477 1474 1470 1467 1463 1459 1455 1451 1447 1443 1439 1435 1432 1429 1426 1423 1420 1418 1416 1413 1411 1408 1407 1407 1406 1406 1404 1403 1401 1400 1399 1399 1399 1400 1399 1399 1399 1400 1401 1403 1404 1406 1409 1414 1418 1422 1427 1432 1433 1434 1437 1443 1448 1452 1456 1462 1468 1472 1476 1480 1484 1486 1488 1491 1494 1496 1499
1503 1500 1497 1494 1491 1488 1485 1482 1478 1475 1471 1468 1464 1460 1456 1453 1449 1445 1442 1438 1434 1430 1427 1425 1422 1420 1417 1415 1414 1413 1413 1412 1411 1410 1407 1406 1405 1403 1402 1402 1403 1403 1403 1402 1403 1404 1405 1406 1406 1407 1410 1415 1420 1426 1433 1436 1437 1436 1439 1446 1453 1457 1461 1467 1473 1477 1481 1485 1487 1489 1491 1493 1495 1498
1505 1503 1500 1497 1495 1492 1489 1486 1483 1479 1476 1473 1469 1466 1462 1459 1455 1452 1448 1444 1440 1436 1433 1430 1427 1425 1423 1421 1420 1419 1418 1417 1416 1415 1413 1411 1410 1408 1407 1407 1407 1407 1407 1406 1407 1408 1409 1410 1410 1410 1410 1413 1418 1424 1432 1438 1441 1441 1441 1445 1452 1458 1462 1467 1473 1478 1482 1485 1487 1489 1491 1492 1495 1497
1508 1505 1503 1500 1498 1495 1492 1489 1486 1483 1480 1477 1474 1470 1467 1464 1461 1457 1453 1449 1445 1442 1439 1436 1433 1431 1429 1427 1426 1425 1424 1423 1422 1420 1418 1416 1415 1413 1412 1412 1412 1412 1412 1411 1411 1412 1413 1414 1415 1416 1415 1416 1418 1423 1429 1436 1442 1447 1448 1449 1453 1459 1465 1469 1473 1477 1481 1484 1487 1489 1491 1493 1495 1498
1509 1507 1505 1503 1501 1498 1496 1493 1490 1487 1484 1481 1478 1474 1471 1468 1465 1461 1457 1454 1451 1448 1445 1442 1439 1437 1435 1433 1432 1431 1429 1428 1426 1425 1423 1421 1420 1419 1419 1418 1418 1418 1418 1417 1417 1418 1418 1419 1420 1421 1421 1421 1422 1425 1429 1435 1442 1450 1454 1456 1459 1463 1468 1472 1474 1477 1481 1484 1486 1489 1491 1494 1496 1499
1511 1509 1507 1505 1503 1501 1498 1496 1493 1490 1487 1485 1482 1479 1475 1472 1469 1466 1462 1459 1456 1453 1450 1448 1446 1443 1441 1440 1438 1437 1435 1433 1431 1430 1428 1427 1426 1426 1426 1425 1425 1425 1424 1423 1423 1424 1425 1426 1427 1428 1427 1428 1430 1433 1436 1441 1447 1453 1458 1462 1466 1469 1472 1474 1477 1479 1481 1484 1486 1488 1491 1494 1497 1499
1513 1511 1509 1507 1505 1503 1501 1498 1496 1493 1490 1488 1485 1482 1479 1476 1473 1471 1468 1465 1462 1459 1456 1453 1451 1449 1448 1446 1444 1442 1440 1438 1437 1435 1434 1433 1432 1432 1432 1432 1432 1431 1430 1429 1429 1430 1431 1433 1435 1436 1435 1436 1439 1442 1444 1448 1452 1457 1461 1465 1469 1472 1475 1478 1480 1481 1482 1485 1487 1489 1492 1496 1498 1500
1515 1513 1511 1509 1507 1505 1503 1500 1498 1495 1492 1490 1487 1485 1482 1480 1477 1475 1472 1469 1466 1464 1461 1459 1457 1455 1453 1451 1449 1447 1445 1443 1442 1441 1440 1439 1439 1439 1438 1437 1437 1437 1436 1435 1436 1437 1439 1441 1442 1443 1443 1445 1447 1448 1450 1453 1456 1460 1464 1467 1471 1474 1477 1480 1482 1483 1484 1486 1488 1491 1493 1496 1499 1501
1517 1515 1513 1511 1509 1507 1505 1502 1500 1497 1494 1492 1489 1487 1484 1482 1480 1477 1475 1473 1470 1468 1466 1464 1462 1460 1458 1457 1455 1453 1451 1449 1448 1447 1446 1445 1445 1444 1444 1443 1443 1443 1442 1442 1443 1445 1446 1448 1449 1449 1450 1452 1453 1454 1455 1458 1461 1463 1466 1470 1473 1476 1479 1481 1483 1485 1487 1489 1491 1493 1495 1497 1500 1502
1519 1517 1514 1513 1511 1508 1506 1504 1502 1499 1496 1494 1491 1489 1486 1484 1482 1480 1478 1476 1474 1472 1470 1468 1467 1465 1463 1462 1460 1458 1456 1455 1454 1453 1452 1451 1450 1450 1450 1449 1449 1449 1449 1449 1449 1450 1451 1452 1454 1454 1455 1456 1458 1459 1460 1462 1465 1467 1469 1472 1475 1478 1480 1483 1485 1487 1489 1492 1494 1496 1498 1500 1501 1503
1520 1518 1516 1514 1512 1510 1508 1506 1503 1501 1498 1495 1493 1491 1488 1486 1485 1483 1481 1479 1478 1476 1474 1472 1471 1469 1468 1466 1464 1463 1461 1460 1460 1458 1457 1457 1456 1455 1455 1455 1454 1454 1454 1454 1454 1455 1456 1457 1457 1458 1459 1460 1462 1463 1465 1466 1468 1470 1472 1475 1477 1480 1482 1484 1486 1489 1491 1493 1495 1497 1499 1501 1502 1503